TimeEDT,TemperatureF,Dew PointF,Humidity,Sea Level PressureIn,VisibilityMPH,Wind Direction,Wind SpeedMPH,Gust SpeedMPH,PrecipitationIn,Events,Conditions,WindDirDegrees,DateUTC
12:30 AM,26.1,19.0,75,29.96,10.0,NW,12.7,20.7,N/A,,Scattered Clouds,320,2014-03-09 05:30:00
12:56 AM,25.0,19.0,78,30.01,10.0,WNW,10.4,19.6,N/A,,Mostly Cloudy,300,2014-03-09 05:56:00
1:56 AM,25.0,18.0,75,30.03,10.0,WNW,8.1,-,N/A,,Mostly Cloudy,300,2014-03-09 06:56:00
3:04 AM,25.0,18.0,75,29.97,10.0,WNW,10.4,-,N/A,,Overcast,290,2014-03-09 07:04:00
3:39 AM,24.1,16.0,71,29.98,10.0,WNW,12.7,-,N/A,,Overcast,300,2014-03-09 07:39:00
3:56 AM,23.0,16.0,74,30.03,10.0,WNW,11.5,-,N/A,,Overcast,290,2014-03-09 07:56:00
4:24 AM,23.0,15.1,72,29.99,10.0,NW,9.2,-,N/A,,Scattered Clouds,310,2014-03-09 08:24:00
4:56 AM,21.9,15.1,75,30.06,10.0,NW,9.2,-,N/A,,Mostly Cloudy,310,2014-03-09 08:56:00
5:46 AM,21.9,15.1,75,30.02,10.0,NW,6.9,-,N/A,,Overcast,310,2014-03-09 09:46:00
5:56 AM,21.9,14.0,72,30.09,10.0,NW,11.5,-,N/A,,Overcast,320,2014-03-09 09:56:00
6:05 AM,21.9,14.0,72,30.03,10.0,NNW,11.5,-,N/A,,Overcast,330,2014-03-09 10:05:00
6:56 AM,21.0,12.9,71,30.10,10.0,NW,5.8,-,N/A,,Overcast,310,2014-03-09 10:56:00
7:54 AM,19.4,12.2,74,30.06,10.0,WNW,5.8,-,N/A,,Partly Cloudy,290,2014-03-09 11:54:00
7:56 AM,19.0,12.0,74,30.14,10.0,WNW,6.9,-,N/A,,Partly Cloudy,290,2014-03-09 11:56:00
8:17 AM,19.9,12.0,71,30.07,10.0,West,9.2,-,N/A,,Mostly Cloudy,270,2014-03-09 12:17:00
8:35 AM,19.0,12.0,74,30.08,10.0,West,9.2,-,N/A,,Scattered Clouds,280,2014-03-09 12:35:00
8:56 AM,19.9,12.9,74,30.16,10.0,West,10.4,-,N/A,,Partly Cloudy,280,2014-03-09 12:56:00
9:56 AM,21.9,12.0,66,30.17,10.0,WNW,10.4,16.1,N/A,,Partly Cloudy,300,2014-03-09 13:56:00
10:09 AM,21.9,12.0,66,30.10,10.0,WNW,12.7,-,N/A,,Mostly Cloudy,290,2014-03-09 14:09:00
10:56 AM,23.0,12.9,65,30.18,10.0,WNW,10.4,-,N/A,,Overcast,290,2014-03-09 14:56:00
11:56 AM,26.1,15.1,63,30.17,10.0,West,12.7,20.7,N/A,,Overcast,280,2014-03-09 15:56:00
12:45 PM,27.0,15.1,61,30.09,10.0,West,16.1,-,N/A,,Scattered Clouds,270,2014-03-09 16:45:00
12:56 PM,27.0,15.1,61,30.15,10.0,WSW,10.4,23.0,N/A,,Partly Cloudy,250,2014-03-09 16:56:00
1:56 PM,30.0,17.1,59,30.12,10.0,West,11.5,-,N/A,,Clear,280,2014-03-09 17:56:00
2:56 PM,30.9,16.0,54,30.09,10.0,WSW,11.5,18.4,N/A,,Clear,250,2014-03-09 18:56:00
3:56 PM,32.0,17.1,54,30.07,10.0,WNW,16.1,25.3,N/A,,Partly Cloudy,290,2014-03-09 19:56:00
4:56 PM,32.0,16.0,52,30.06,10.0,WSW,16.1,-,N/A,,Clear,250,2014-03-09 20:56:00
5:56 PM,33.1,16.0,50,30.04,10.0,West,15.0,-,N/A,,Clear,280,2014-03-09 21:56:00
6:56 PM,32.0,17.1,54,30.03,10.0,West,8.1,-,N/A,,Clear,260,2014-03-09 22:56:00
7:56 PM,30.9,17.1,57,30.05,10.0,WSW,9.2,-,N/A,,Scattered Clouds,250,2014-03-09 23:56:00
8:56 PM,30.0,17.1,59,30.02,10.0,WSW,9.2,-,N/A,,Partly Cloudy,240,2014-03-10 00:56:00
9:56 PM,30.9,17.1,57,30.00,10.0,SW,8.1,-,N/A,,Partly Cloudy,230,2014-03-10 01:56:00
10:56 PM,30.9,17.1,57,29.96,10.0,SW,9.2,-,N/A,,Clear,230,2014-03-10 02:56:00
11:56 PM,32.0,17.1,54,29.93,10.0,SW,10.4,-,N/A,,Mostly Cloudy,230,2014-03-10 03:56:00
12:56 AM,33.1,18.0,54,29.90,10.0,SW,11.5,-,N/A,,Mostly Cloudy,230,2014-03-10 04:56:00